When you browse on this site, cookies collect data to enhance your experience and personalize the content and advertising you see.
Visit our Privacy Policy to learn more. By continuing to use the site, you agree to this use of cookies and data.
  • In Latvia
  • List of Countries
  • For 7 days
  • Water Temperature
  • Weather Map
  • Weather Widgets
  • user-avatar
    Login

    Hourly Weather Munina

    Today, 8 April, Wednesday

    Time Temperature Precipitation Wind Pressure Humidity
    00:00 +9°C° 0 mm 2 mps 756 mmHg 56%
    01:00 +9°C° 0 mm 2 mps 756 mmHg 57%
    02:00 +9°C° 0 mm 1 mps 756 mmHg 59%
    03:00 +9°C° 0 mm 1 mps 756 mmHg 60%
    04:00 +8°C° 0 mm 1 mps 755 mmHg 61%
    05:00 +7°C° 0 mm 2 mps 755 mmHg 63%
    06:00 +8°C° 0 mm 2 mps 756 mmHg 62%
    07:00 +9°C° 0 mm 2 mps 756 mmHg 60%
    08:00 +10°C° 0 mm 2 mps 756 mmHg 59%
    09:00 +13°C° 0 mm 2 mps 756 mmHg 55%
    10:00 +15°C° 0 mm 2 mps 755 mmHg 51%
    11:00 +17°C° 0 mm 2 mps 755 mmHg 47%
    12:00 +18°C° 0 mm 2 mps 755 mmHg 46%
    13:00 +19°C° 0 mm 2 mps 754 mmHg 44%
    14:00 +20°C° 0 mm 2 mps 754 mmHg 43%
    15:00 +21°C° 0 mm 1 mps 753 mmHg 43%
    16:00 +21°C° 0 mm 1 mps 753 mmHg 43%
    17:00 +21°C° 0 mm 1 mps 753 mmHg 43%
    18:00 +19°C° 0 mm 1 mps 753 mmHg 49%
    19:00 +16°C° 0 mm 1 mps 752 mmHg 56%
    20:00 +14°C° 0 mm 1 mps 752 mmHg 62%
    21:00 +13°C° 0 mm 1 mps 752 mmHg 65%
    22:00 +12°C° 0 mm 1 mps 752 mmHg 67%
    23:00 +10°C° 0 mm 2 mps 752 mmHg 70%

    Tomorrow, 9 April, Thursday

    Time Temperature Precipitation Wind Pressure Humidity
    00:00 +11°C° 0 mm 1 mps 751 mmHg 72%
    01:00 +11°C° 0 mm 1 mps 751 mmHg 74%
    02:00 +10°C° 0 mm 1 mps 751 mmHg 76%
    03:00 +10°C° 0 mm 1 mps 751 mmHg 77%
    04:00 +9°C° 0 mm 1 mps 750 mmHg 77%
    05:00 +9°C° 0 mm 1 mps 750 mmHg 78%
    06:00 +10°C° 0 mm 1 mps 750 mmHg 74%
    07:00 +11°C° 0 mm 1 mps 750 mmHg 70%
    08:00 +13°C° 0 mm 1 mps 749 mmHg 65%
    09:00 +14°C° 0 mm 2 mps 749 mmHg 59%
    10:00 +16°C° 0 mm 2 mps 749 mmHg 53%
    11:00 +18°C° 0 mm 3 mps 748 mmHg 47%
    12:00 +19°C° 0 mm 3 mps 748 mmHg 44%
    13:00 +20°C° 0 mm 4 mps 748 mmHg 42%
    14:00 +20°C° 0 mm 4 mps 747 mmHg 39%
    15:00 +20°C° 0 mm 4 mps 747 mmHg 40%
    16:00 +20°C° 0 mm 4 mps 747 mmHg 40%
    17:00 +20°C° 0 mm 4 mps 746 mmHg 41%
    18:00 +18°C° 0 mm 4 mps 746 mmHg 45%
    19:00 +16°C° 0 mm 3 mps 746 mmHg 49%
    20:00 +13°C° 0 mm 3 mps 746 mmHg 53%
    21:00 +12°C° 0 mm 3 mps 746 mmHg 58%
    22:00 +12°C° 0 mm 3 mps 747 mmHg 64%
    23:00 +11°C° 0 mm 3 mps 747 mmHg 69%

    Day after tomorrow, 10 April, Friday

    Time Temperature Precipitation Wind Pressure Humidity
    00:00 +11°C° 0.1 mm 4 mps 747 mmHg 74%
    01:00 +10°C° 0.1 mm 4 mps 748 mmHg 79%
    02:00 +10°C° 0.1 mm 4 mps 748 mmHg 83%
    03:00 +8°C° 0 mm 4 mps 748 mmHg 84%
    04:00 +7°C° 0 mm 4 mps 748 mmHg 84%
    05:00 +7°C° 0 mm 3 mps 749 mmHg 85%
    06:00 +7°C° 0 mm 4 mps 749 mmHg 78%
    07:00 +7°C° 0 mm 4 mps 750 mmHg 71%
    08:00 +7°C° 0 mm 4 mps 750 mmHg 64%
    09:00 +8°C° 0 mm 5 mps 750 mmHg 57%
    10:00 +9°C° 0 mm 5 mps 751 mmHg 49%
    11:00 +10°C° 0 mm 5 mps 751 mmHg 42%
    12:00 +10°C° 0 mm 5 mps 751 mmHg 41%
    13:00 +12°C° 0 mm 5 mps 751 mmHg 40%
    14:00 +12°C° 0 mm 5 mps 751 mmHg 40%
    15:00 +12°C° 0 mm 5 mps 751 mmHg 40%
    16:00 +12°C° 0 mm 4 mps 751 mmHg 41%
    17:00 +11°C° 0 mm 4 mps 750 mmHg 41%
    18:00 +10°C° 0 mm 3 mps 750 mmHg 45%
    19:00 +8°C° 0 mm 2 mps 750 mmHg 48%
    20:00 +8°C° 0 mm 1 mps 751 mmHg 51%
    21:00 +7°C° 0 mm 1 mps 751 mmHg 52%
    22:00 +7°C° 0 mm 1 mps 751 mmHg 52%
    23:00 +7°C° 0 mm 1 mps 751 mmHg 52%

    11 April, Saturday

    Time Temperature Precipitation Wind Pressure Humidity
    00:00 +6°C° 0 mm 1 mps 751 mmHg 53%
    01:00 +6°C° 0 mm 1 mps 751 mmHg 53%
    02:00 +5°C° 0 mm 0 mps 751 mmHg 53%
    03:00 +5°C° 0 mm 0 mps 751 mmHg 55%
    04:00 +4°C° 0 mm 0 mps 751 mmHg 57%
    05:00 +3°C° 0 mm 0 mps 751 mmHg 59%
    06:00 +5°C° 0 mm 0 mps 751 mmHg 57%
    07:00 +6°C° 0 mm 0 mps 751 mmHg 54%
    08:00 +7°C° 0 mm 0 mps 751 mmHg 52%
    09:00 +9°C° 0 mm 0 mps 751 mmHg 48%
    10:00 +10°C° 0 mm 0 mps 751 mmHg 44%
    11:00 +13°C° 0 mm 1 mps 752 mmHg 39%
    12:00 +13°C° 0 mm 1 mps 751 mmHg 38%
    13:00 +14°C° 0 mm 1 mps 751 mmHg 37%
    14:00 +14°C° 0 mm 1 mps 751 mmHg 36%
    15:00 +14°C° 0 mm 1 mps 751 mmHg 36%
    16:00 +14°C° 0 mm 1 mps 751 mmHg 37%
    17:00 +14°C° 0 mm 1 mps 750 mmHg 37%
    18:00 +13°C° 0 mm 1 mps 750 mmHg 41%
    19:00 +11°C° 0 mm 1 mps 751 mmHg 46%
    20:00 +10°C° 0 mm 1 mps 751 mmHg 50%
    21:00 +8°C° 0 mm 2 mps 751 mmHg 54%
    22:00 +7°C° 0 mm 2 mps 751 mmHg 57%
    23:00 +7°C° 0 mm 2 mps 751 mmHg 61%

    12 April, Sunday

    Time Temperature Precipitation Wind Pressure Humidity
    00:00 +6°C° 0 mm 2 mps 751 mmHg 62%
    01:00 +6°C° 0 mm 2 mps 751 mmHg 64%
    02:00 +5°C° 0 mm 2 mps 751 mmHg 65%
    03:00 +5°C° 0 mm 2 mps 751 mmHg 66%
    04:00 +5°C° 0 mm 2 mps 750 mmHg 68%
    05:00 +4°C° 0 mm 2 mps 750 mmHg 69%
    06:00 +5°C° 0 mm 2 mps 750 mmHg 66%
    07:00 +7°C° 0 mm 2 mps 750 mmHg 63%
    08:00 +8°C° 0 mm 2 mps 749 mmHg 60%
    09:00 +10°C° 0 mm 2 mps 749 mmHg 54%
    10:00 +13°C° 0 mm 2 mps 749 mmHg 48%
    11:00 +15°C° 0 mm 2 mps 748 mmHg 42%
    12:00 +16°C° 0 mm 2 mps 748 mmHg 40%
    13:00 +17°C° 0 mm 2 mps 747 mmHg 39%
    14:00 +18°C° 0 mm 3 mps 747 mmHg 38%
    15:00 +18°C° 0 mm 3 mps 746 mmHg 40%
    16:00 +18°C° 0 mm 4 mps 745 mmHg 43%
    17:00 +18°C° 0 mm 4 mps 745 mmHg 45%
    18:00 +15°C° 0 mm 4 mps 744 mmHg 51%
    19:00 +13°C° 0 mm 4 mps 744 mmHg 57%
    20:00 +11°C° 0 mm 4 mps 744 mmHg 62%
    21:00 +11°C° 0 mm 4 mps 743 mmHg 61%
    22:00 +10°C° 0 mm 5 mps 743 mmHg 60%
    23:00 +10°C° 0 mm 5 mps 743 mmHg 59%

    13 April, Monday

    Time Temperature Precipitation Wind Pressure Humidity
    00:00 +10°C° 0 mm 6 mps 743 mmHg 58%
    01:00 +10°C° 0 mm 6 mps 742 mmHg 57%
    02:00 +10°C° 0 mm 6 mps 742 mmHg 56%
    03:00 +10°C° 0.1 mm 6 mps 741 mmHg 58%
    04:00 +10°C° 0.1 mm 6 mps 741 mmHg 61%
    05:00 +10°C° 0.1 mm 7 mps 740 mmHg 64%
    06:00 +10°C° 0.3 mm 7 mps 740 mmHg 67%
    07:00 +10°C° 0.3 mm 6 mps 739 mmHg 70%
    08:00 +10°C° 0.3 mm 6 mps 739 mmHg 74%
    09:00 +12°C° 0 mm 7 mps 738 mmHg 69%
    10:00 +13°C° 0 mm 8 mps 738 mmHg 65%
    11:00 +16°C° 0 mm 8 mps 737 mmHg 60%
    12:00 +16°C° 0.4 mm 8 mps 737 mmHg 61%
    13:00 +16°C° 0.4 mm 8 mps 737 mmHg 62%
    14:00 +16°C° 0.4 mm 8 mps 736 mmHg 63%
    15:00 +13°C° 1.1 mm 8 mps 736 mmHg 66%
    16:00 +12°C° 1.1 mm 7 mps 735 mmHg 70%
    17:00 +11°C° 1.1 mm 7 mps 735 mmHg 74%
    18:00 +9°C° 0 mm 7 mps 735 mmHg 75%
    19:00 +8°C° 0 mm 6 mps 735 mmHg 75%
    20:00 +7°C° 0 mm 6 mps 735 mmHg 76%
    21:00 +4°C° 0.2 mm 6 mps 736 mmHg 82%
    22:00 +2°C° 0.2 mm 7 mps 737 mmHg 87%
    23:00 -1°C° 0.2 mm 7 mps 738 mmHg 93%
    Show more